Temperature
30 29 27 27 29 29 29 27 26 26 28 29 28 27 27 26 25 24 22 21 20 19 19 18 18 18 18 17 17 17 17 17 17 17 17 17 17 17 17 17 16 16 16 16
28 26 27 28 30 30 30 28 27 27 28 28 28 27 27 26 25 24 22 21 21 20 19 18 18 18 18 17 17 17 17 17 17 17 17 17 17 17 17 17 16 16 16 16
28 27 28 29 30 29 28 27 27 27 28 28 27 25 24 25 24 24 23 22 22 21 20 20 19 19 18 18 17 17 17 16 16 16 16 16 16 16 16 16 16 16 15 15
29 29 30 29 29 29 27 28 28 28 27 25 24 21 20 21 23 24 24 23 23 22 21 21 20 19 19 18 18 17 17 16 15 15 15 15 15 15 15 15 15 15 15 15
28 30 30 30 30 30 28 29 28 26 24 24 22 20 19 19 20 23 24 24 23 22 22 21 20 20 19 19 18 18 17 16 15 15 14 14 14 14 14 14 14 14 14 14
28 30 31 31 31 31 31 29 25 22 21 20 20 20 19 19 21 23 24 24 23 22 22 21 20 20 19 19 18 18 17 16 15 14 14 13 13 13 13 13 13 13 14 14
27 29 31 32 30 30 30 28 24 21 19 19 20 20 21 23 24 24 24 24 23 23 22 21 21 20 19 19 18 17 16 15 15 14 13 13 13 12 12 12 13 13 13 14
25 26 29 31 30 29 29 29 26 25 24 22 22 21 23 25 24 25 25 24 24 23 22 22 21 20 19 18 18 17 16 15 14 14 13 12 12 12 12 12 12 12 12 12
27 28 31 31 31 30 29 29 30 29 28 26 24 23 23 25 25 25 25 25 24 23 22 21 20 19 19 18 17 16 15 14 14 13 13 12 12 12 11 11 11 11 11 12
30 29 30 31 31 31 30 30 29 28 26 26 26 24 23 24 25 25 25 24 24 23 22 21 20 19 18 17 16 15 15 14 13 13 12 12 12 11 11 10 10 10 10 10
31 29 29 30 29 29 29 29 28 28 27 26 26 24 25 25 25 25 25 24 23 22 21 20 19 18 17 16 15 15 14 13 13 12 12 11 11 10 10 10 10 10 10 10
30 29 27 27 28 29 30 29 28 26 26 27 26 24 27 26 26 25 24 23 22 21 20 19 18 17 16 15 15 14 13 12 12 12 11 11 10 10 10 9 9 9 9 9
29 28 27 25 24 26 29 29 28 28 27 27 26 25 27 27 26 24 23 22 21 20 19 18 17 16 15 14 14 13 12 12 11 11 11 10 10 10 9 9 9 9 9 9
28 28 27 26 27 28 28 29 29 28 26 26 26 26 27 25 25 24 23 22 21 19 18 17 16 15 14 14 13 12 12 11 11 10 10 10 9 9 9 9 9 9 8 8
29 28 28 29 29 29 29 29 28 27 27 26 26 26 26 25 24 23 22 21 20 19 18 17 16 15 14 13 12 12 11 11 10 10 9 9 9 9 9 8 8 8 8 8
29 27 27 28 29 29 28 29 28 28 27 27 26 26 26 25 24 23 21 20 19 18 17 16 15 14 13 13 12 11 11 10 10 9 9 9 9 8 8 8 8 8 8 8
28 27 26 27 28 28 27 28 28 28 28 27 26 25 25 24 23 22 21 20 18 17 16 15 14 13 13 12 12 11 11 10 10 9 9 9 8 8 8 8 8 8 8 8
28 27 26 27 27 25 27 29 28 27 27 27 26 25 25 24 23 21 19 18 17 16 15 14 14 13 13 12 11 11 10 10 9 9 9 8 8 8 8 8 8 8 8 8
29 27 26 26 26 26 27 27 27 26 26 26 25 25 24 23 22 20 18 18 17 16 15 14 13 13 12 11 11 10 10 9 9 9 8 8 8 8 8 8 8 8 8 7
29 27 26 26 25 25 27 27 27 26 25 25 25 24 23 22 22 21 19 18 16 15 14 13 13 12 12 11 10 10 9 9 9 8 8 8 8 8 8 8 8 8 8 7
27 26 26 26 25 26 27 27 27 25 23 24 24 23 22 21 20 19 18 17 16 15 14 13 12 12 11 11 10 10 9 9 8 8 8 8 8 8 8 8 8 8 8 7
28 27 26 26 25 25 27 27 26 25 24 24 23 22 22 20 20 19 18 17 15 14 14 13 12 11 11 10 10 9 9 9 8 8 8 8 8 8 8 8 8 8 8 7
29 28 27 27 26 26 26 26 26 25 24 23 23 22 21 20 19 18 17 16 15 14 13 12 12 11 11 10 10 9 9 8 8 8 8 8 8 8 8 8 8 8 7 7
29 29 27 26 27 27 27 26 26 25 24 23 22 21 20 20 19 18 17 15 14 14 13 12 11 11 10 10 10 9 9 8 8 8 8 8 8 8 8 8 8 7 7 7
28 28 27 27 27 27 27 26 26 25 24 23 22 21 20 19 18 17 16 15 14 13 13 12 11 11 10 10 9 9 9 8 8 8 8 8 8 8 8 8 8 8 7 7
28 28 27 27 27 26 26 26 25 24 24 23 22 21 20 19 18 17 16 15 14 13 12 12 11 10 10 10 9 9 9 8 8 8 8 8 8 8 8 8 8 8 7 7
Wind_Speed
9 7 9 12 10 8 8 6 4 6 7 4 7 10 10 9 9 10 10 9 9 9 8 7 6 6 6 6 5 4 5 5 4 4 5 4 4 4 3 2 1 1 3 4
4 6 12 16 14 11 6 1 2 4 4 4 5 8 10 9 9 9 10 10 10 9 8 7 6 5 4 4 3 3 4 5 5 4 4 3 4 4 4 1 0 1 1 3
2 8 15 16 13 8 7 6 6 5 6 5 3 4 6 7 10 9 9 9 9 9 8 6 5 4 4 3 2 3 3 3 4 6 5 6 5 5 4 3 2 1 1 3
2 7 10 9 8 6 5 8 10 8 6 5 2 2 4 3 5 9 9 9 8 7 6 5 4 3 2 2 2 3 2 1 3 5 6 8 8 7 7 5 4 5 4 4
9 9 8 7 6 5 4 6 5 11 11 9 5 3 2 2 5 7 7 7 6 5 4 3 1 1 1 2 2 1 2 1 2 4 7 8 8 8 8 8 9 8 7 7
14 11 6 6 7 6 6 5 7 11 8 7 6 2 4 7 8 7 7 6 4 2 2 2 1 1 2 3 3 3 4 4 4 5 7 8 9 8 10 10 11 9 7 6
12 9 7 5 6 6 8 8 4 3 0 7 9 4 5 9 7 6 5 4 2 0 1 1 2 3 3 4 4 4 5 5 5 6 7 8 8 9 10 11 9 9 7 7
3 4 5 6 7 8 8 7 7 9 4 3 5 4 7 10 7 5 4 2 1 2 3 4 5 4 5 6 5 5 6 6 6 6 7 7 9 9 8 8 9 9 9 9
4 3 1 3 4 6 8 10 12 11 10 1 6 7 7 7 5 4 3 4 5 6 7 7 8 8 8 7 7 7 7 7 7 7 8 9 9 8 9 9 10 9 8 10
8 8 5 4 2 3 8 9 8 9 9 8 6 7 6 5 5 6 6 7 8 8 9 10 10 10 9 8 7 7 7 8 7 8 8 11 8 8 9 9 9 9 10 10
8 6 7 6 5 7 8 9 8 9 8 8 6 7 8 5 5 6 8 8 8 9 11 11 10 10 9 9 9 8 8 8 7 8 7 8 7 8 9 9 10 9 10 10
7 6 5 8 13 11 5 6 7 7 8 7 6 5 4 3 6 9 9 9 10 10 10 11 11 10 10 10 11 10 10 9 8 8 8 8 8 8 9 11 10 10 10 10
9 6 5 3 5 10 6 4 6 8 7 7 7 4 1 6 10 11 11 10 10 10 11 11 10 10 10 10 10 11 11 11 11 10 9 9 10 10 10 10 10 10 10 10
4 7 9 7 4 4 6 5 4 6 6 8 9 11 10 11 11 11 10 9 10 10 10 11 10 9 9 10 10 11 12 12 12 11 11 11 10 11 11 11 11 11 11 11
4 9 11 11 9 7 8 8 6 6 6 8 10 11 10 11 11 10 10 10 11 10 11 11 11 10 10 10 10 11 11 11 11 12 12 12 11 11 11 11 11 11 12 14
1 6 12 13 12 10 11 9 5 5 7 8 10 10 10 11 11 10 10 10 10 10 12 13 12 12 11 11 11 11 11 11 11 12 13 12 12 12 12 12 12 12 11 11
5 6 11 13 11 12 9 4 2 5 7 9 10 9 10 11 11 10 9 7 9 11 12 12 13 12 10 10 10 11 11 12 12 12 13 13 13 13 13 15 14 13 12 12
6 8 7 12 13 12 5 1 2 4 6 8 7 8 10 10 10 8 8 8 9 11 12 12 12 13 12 11 11 11 13 13 13 13 13 13 14 14 13 13 14 13 11 11
6 5 8 10 13 9 2 2 1 4 7 5 5 8 10 11 11 6 8 8 8 10 11 11 12 13 12 12 12 12 13 13 13 14 14 15 15 15 15 15 14 13 11 12
5 6 7 10 13 15 9 5 3 4 1 7 7 8 10 10 9 6 9 9 9 10 10 11 12 12 12 12 12 13 14 14 14 14 15 15 15 15 15 15 13 12 10 11
7 8 10 11 13 8 6 5 3 6 3 4 7 7 8 7 7 8 9 9 9 10 11 11 11 11 11 11 11 12 14 14 14 15 15 15 14 14 14 12 11 11 11 11
8 8 9 9 9 4 4 3 6 4 2 4 6 6 6 6 7 8 8 8 9 10 11 12 10 10 10 11 11 13 13 14 14 15 16 16 15 15 13 11 11 11 10 11
6 6 5 5 6 2 5 6 3 2 3 4 5 5 5 6 7 8 8 8 9 10 11 11 11 11 11 11 11 13 13 14 15 15 16 16 16 14 12 11 11 10 8 7
7 4 4 7 9 9 9 8 4 3 3 3 3 3 4 6 7 7 7 8 8 9 10 10 12 12 12 12 12 11 12 13 14 15 15 15 14 14 11 9 8 7 7 7
12 11 12 12 10 9 9 7 5 3 3 4 3 3 4 5 6 6 6 7 7 9 9 10 11 12 13 12 12 12 12 13 15 15 15 14 13 12 10 9 6 6 5 4
11 10 9 9 6 7 8 7 5 5 6 6 5 4 4 4 5 5 6 6 7 8 9 10 11 12 13 13 13 12 12 13 14 14 14 12 12 10 9 9 8 5 5 5
Wind_Direction
253 263 301 307 293 270 234 210 176 199 223 219 169 151 145 137 131 124 120 116 110 104 104 100 95 87 82 77 72 61 55 43 13 23 355 347 343 328 308 278 80 356 320 319
291 308 285 272 279 282 300 318 195 219 257 251 189 155 141 135 125 123 125 125 122 122 118 120 125 118 105 100 103 102 66 39 16 17 325 298 311 297 278 296 342 243 315 318
201 235 246 266 284 306 331 328 299 268 250 249 247 134 103 116 126 136 135 132 129 134 133 138 135 133 132 126 110 77 63 30 15 346 321 332 320 302 311 333 307 264 294 283
298 256 258 282 300 309 316 301 293 284 276 272 228 197 150 184 177 156 146 142 134 129 132 133 139 134 143 167 173 143 135 39 353 332 332 331 313 309 315 316 320 325 301 270
315 300 300 306 303 297 263 249 329 7 0 346 7 33 185 174 235 172 148 132 123 122 117 108 79 93 306 298 304 183 146 97 355 340 320 315 311 318 318 320 312 303 287 262
301 293 298 314 315 322 318 300 31 31 14 332 283 254 208 185 196 168 144 132 130 130 140 154 244 244 280 304 330 3 45 31 7 341 325 317 314 312 307 300 293 289 280 270
305 311 314 327 337 350 321 312 337 3 72 256 239 225 177 161 148 135 125 115 117 128 284 291 301 323 330 329 354 6 12 1 349 332 319 316 313 307 294 288 295 306 308 308
294 292 308 351 351 330 317 321 315 313 295 227 192 186 120 115 115 110 98 75 350 352 12 351 345 357 350 346 355 355 352 336 322 312 308 308 299 293 293 307 320 309 299 294
314 312 295 20 341 341 336 341 335 323 322 14 138 122 114 132 125 81 29 6 4 3 351 343 353 349 344 353 356 349 338 329 324 317 307 289 283 301 314 312 298 291 292 296
325 326 338 349 323 8 341 340 352 340 348 347 80 105 115 103 38 11 4 3 358 349 349 355 352 342 349 347 345 343 339 333 325 313 305 308 321 314 300 297 295 294 290 286
349 327 326 328 2 359 352 4 5 347 356 341 358 79 91 59 10 8 6 2 355 353 351 346 344 347 345 341 339 340 336 329 321 315 310 307 302 300 299 295 291 291 293 293
357 327 333 10 4 334 347 9 355 346 342 325 334 101 75 35 29 30 9 1 1 355 349 346 343 345 341 336 335 333 329 321 317 317 313 307 302 300 298 298 296 295 293 290
348 322 316 4 352 294 295 19 355 340 326 330 340 82 167 30 34 23 8 358 350 353 350 344 345 343 338 338 334 327 323 321 319 314 310 309 306 304 300 297 295 292 290 286
296 301 315 329 332 315 321 339 349 333 337 337 346 348 356 27 13 2 352 347 348 349 349 345 343 338 338 332 329 326 322 320 316 316 314 308 304 302 300 297 295 292 290 288
298 311 319 315 317 317 317 317 324 325 325 317 330 331 11 20 2 356 350 349 341 342 344 342 337 334 331 328 326 321 319 316 316 313 308 307 305 302 298 294 293 290 287 287
268 309 310 309 314 296 294 292 285 300 305 310 318 330 23 8 357 348 341 334 333 343 340 335 332 330 328 325 322 322 319 319 316 310 309 307 302 299 297 295 291 289 287 287
294 293 302 303 304 297 311 316 289 319 325 324 321 346 10 352 344 338 335 345 350 340 335 334 332 327 323 322 326 323 321 319 315 311 308 305 303 301 299 299 299 295 293 291
265 295 298 295 303 301 309 276 327 336 326 318 325 6 357 343 343 4 48 25 348 339 338 335 327 324 324 329 327 325 321 320 317 314 311 310 306 305 303 300 297 294 292 290
206 251 283 293 295 296 281 233 233 339 319 345 10 359 345 346 328 83 50 11 354 348 340 330 324 323 325 325 326 325 320 319 317 316 315 313 310 308 305 302 300 297 294 291
204 209 255 279 292 298 313 120 92 327 342 47 15 357 345 336 323 347 9 360 358 345 334 328 326 325 326 328 327 321 318 319 319 319 316 313 310 307 304 301 299 299 295 292
228 234 249 272 282 300 85 116 280 311 50 14 358 350 337 346 322 325 339 352 349 337 332 332 330 328 328 326 324 319 320 322 323 319 314 310 307 304 299 300 301 300 298 295
279 274 272 277 286 323 115 301 342 18 25 337 338 336 337 325 317 326 338 345 341 335 335 336 332 329 327 327 326 323 324 326 322 318 315 313 309 306 307 306 303 302 301 300
279 290 306 316 315 269 252 292 323 326 300 312 323 331 331 317 319 327 336 341 336 334 335 333 330 327 328 330 331 325 326 326 323 320 317 314 312 308 306 306 306 307 307 308
318 12 301 289 288 292 294 296 276 253 249 280 304 309 306 307 316 325 334 334 333 334 331 332 329 328 328 329 329 327 327 327 323 320 317 316 314 312 313 312 308 309 312 316
304 292 280 275 278 281 283 287 273 253 223 235 254 268 283 297 307 320 328 332 333 328 329 330 329 328 327 329 328 330 331 328 324 321 319 318 315 314 315 314 311 307 309 305
288 297 305 305 316 297 292 284 250 230 232 233 240 257 267 282 300 314 320 327 325 325 329 329 329 327 327 326 327 330 333 330 325 321 321 320 318 320 320 320 318 288 268 263
Height
1477 1481 1484 1480 1472 1470 1471 1477 1485 1486 1474 1474 1477 1481 1484 1489 1492 1496 1500 1504 1506 1508 1510 1511 1511 1511 1512 1511 1512 1512 1512 1512 1512 1512 1512 1512 1511 1511 1510 1509 1507 1505 1504 1502
1478 1486 1481 1474 1469 1465 1467 1476 1481 1480 1473 1473 1475 1479 1483 1488 1493 1497 1501 1504 1506 1508 1510 1511 1512 1513 1513 1513 1513 1513 1512 1512 1512 1512 1511 1511 1510 1509 1508 1507 1505 1503 1500 1499
1481 1481 1473 1471 1467 1468 1474 1478 1479 1479 1473 1472 1480 1489 1491 1490 1495 1500 1502 1503 1505 1507 1509 1511 1512 1513 1513 1514 1513 1513 1512 1511 1511 1510 1510 1509 1508 1507 1506 1504 1502 1500 1498 1496
1474 1470 1469 1468 1468 1470 1478 1472 1472 1474 1481 1486 1489 1509 1505 1501 1499 1499 1501 1502 1504 1506 1508 1510 1512 1513 1513 1513 1513 1512 1511 1510 1509 1508 1507 1506 1505 1503 1502 1500 1498 1496 1494 1492
1477 1469 1466 1467 1465 1465 1470 1466 1472 1480 1490 1496 1501 1514 1514 1509 1506 1499 1500 1501 1503 1505 1507 1509 1511 1512 1512 1512 1512 1511 1509 1507 1506 1505 1504 1503 1501 1499 1497 1495 1493 1491 1489 1488
1474 1467 1463 1462 1459 1459 1461 1466 1478 1490 1504 1520 1513 1519 1519 1509 1503 1497 1498 1501 1503 1505 1507 1508 1509 1510 1510 1510 1509 1509 1507 1505 1503 1502 1501 1499 1497 1494 1492 1490 1488 1486 1485 1484
1483 1471 1463 1460 1463 1464 1464 1476 1497 1517 1528 1523 1504 1512 1507 1494 1493 1494 1497 1499 1501 1503 1505 1506 1507 1507 1507 1507 1506 1505 1504 1502 1500 1499 1497 1495 1493 1490 1488 1485 1483 1482 1480 1479
1496 1492 1469 1461 1465 1469 1466 1471 1492 1502 1504 1504 1500 1506 1495 1489 1493 1494 1496 1498 1500 1501 1503 1504 1505 1505 1505 1505 1504 1502 1500 1499 1497 1495 1493 1491 1488 1486 1483 1481 1479 1477 1475 1474
1484 1482 1463 1462 1462 1465 1468 1469 1463 1472 1473 1484 1495 1497 1493 1489 1491 1492 1494 1496 1497 1500 1501 1503 1503 1503 1503 1502 1501 1499 1497 1495 1493 1491 1488 1486 1484 1481 1478 1476 1473 1472 1470 1469
1468 1477 1465 1461 1461 1463 1465 1465 1470 1479 1491 1493 1489 1497 1502 1493 1492 1492 1493 1495 1497 1499 1500 1501 1502 1502 1501 1499 1498 1496 1494 1491 1489 1486 1484 1482 1479 1476 1473 1470 1468 1466 1464 1462
1467 1478 1476 1469 1471 1473 1471 1472 1475 1477 1480 1495 1497 1503 1488 1490 1490 1491 1493 1495 1497 1499 1500 1500 1500 1499 1498 1497 1495 1493 1490 1488 1485 1482 1479 1476 1473 1470 1467 1465 1462 1460 1458 1456
1470 1475 1485 1484 1478 1472 1469 1474 1477 1490 1491 1484 1489 1502 1484 1486 1486 1490 1493 1495 1497 1499 1499 1499 1498 1497 1496 1494 1492 1489 1486 1484 1481 1477 1474 1471 1468 1465 1462 1459 1456 1454 1451 1449
1479 1483 1492 1498 1500 1487 1474 1473 1475 1478 1482 1487 1493 1498 1483 1482 1487 1491 1494 1496 1497 1498 1498 1497 1496 1495 1493 1491 1488 1486 1483 1480 1476 1473 1469 1466 1463 1459 1456 1453 1450 1447 1445 1443
1482 1482 1489 1498 1490 1479 1476 1473 1474 1481 1489 1494 1491 1490 1482 1485 1488 1492 1494 1495 1496 1496 1496 1495 1494 1492 1490 1488 1485 1482 1479 1476 1472 1468 1465 1461 1457 1454 1450 1447 1444 1441 1439 1436
1480 1483 1479 1475 1470 1471 1473 1473 1475 1480 1484 1491 1489 1487 1485 1487 1489 1491 1493 1494 1495 1495 1494 1493 1492 1489 1487 1484 1481 1478 1475 1471 1468 1464 1460 1456 1452 1448 1445 1441 1438 1435 1432 1430
1478 1486 1483 1480 1473 1472 1472 1470 1473 1477 1479 1482 1484 1485 1484 1487 1489 1491 1492 1492 1493 1493 1492 1491 1489 1486 1484 1481 1478 1474 1471 1467 1463 1459 1455 1451 1447 1443 1439 1436 1432 1429 1426 1423
1478 1483 1488 1487 1476 1474 1481 1473 1473 1475 1475 1479 1485 1485 1484 1487 1489 1490 1490 1490 1491 1491 1490 1488 1486 1483 1480 1477 1474 1470 1467 1463 1458 1454 1450 1446 1442 1437 1433 1430 1426 1422 1419 1416
1480 1484 1487 1486 1484 1499 1479 1467 1469 1474 1476 1476 1478 1482 1485 1487 1488 1488 1489 1490 1491 1490 1488 1486 1483 1480 1477 1474 1470 1466 1463 1458 1454 1449 1445 1440 1436 1432 1427 1423 1419 1416 1412 1409
1473 1482 1487 1489 1489 1484 1475 1470 1471 1476 1479 1476 1480 1484 1485 1486 1487 1488 1489 1489 1489 1487 1486 1483 1480 1477 1474 1470 1466 1462 1458 1454 1449 1445 1440 1435 1430 1426 1421 1417 1413 1409 1405 1401
1470 1476 1484 1486 1493 1494 1475 1468 1471 1476 1481 1482 1482 1484 1486 1486 1487 1486 1488 1487 1486 1485 1483 1480 1477 1474 1470 1467 1462 1458 1454 1450 1445 1440 1435 1429 1425 1420 1415 1411 1407 1403 1399 1395
1477 1478 1482 1484 1486 1476 1469 1470 1472 1482 1487 1483 1483 1484 1485 1486 1488 1488 1486 1485 1484 1482 1480 1477 1474 1471 1467 1463 1459 1454 1450 1446 1441 1435 1429 1424 1419 1414 1410 1405 1401 1397 1393 1389
1471 1475 1477 1477 1485 1485 1471 1469 1474 1479 1479 1480 1482 1483 1484 1485 1485 1485 1484 1483 1481 1480 1477 1474 1471 1467 1464 1460 1455 1451 1446 1441 1436 1430 1425 1419 1414 1409 1405 1400 1396 1392 1388 1384
1463 1464 1468 1472 1477 1472 1470 1470 1472 1475 1477 1479 1480 1482 1483 1483 1483 1483 1482 1481 1479 1477 1474 1471 1468 1464 1460 1457 1452 1447 1442 1437 1431 1426 1420 1414 1409 1405 1401 1396 1392 1388 1384 1380
1459 1460 1465 1468 1466 1466 1467 1467 1469 1471 1474 1477 1479 1480 1480 1481 1481 1480 1479 1478 1476 1474 1471 1468 1465 1461 1457 1453 1449 1444 1439 1433 1428 1422 1416 1410 1405 1401 1397 1392 1388 1384 1380 1376
1462 1462 1462 1463 1462 1462 1463 1464 1466 1468 1471 1473 1475 1477 1478 1478 1478 1478 1477 1475 1473 1471 1468 1465 1462 1458 1454 1450 1446 1441 1436 1430 1424 1419 1413 1407 1402 1398 1393 1389 1385 1381 1377 1374
1458 1458 1460 1461 1459 1461 1462 1463 1464 1466 1468 1471 1473 1474 1475 1475 1475 1475 1474 1472 1470 1468 1465 1462 1459 1455 1451 1447 1443 1438 1433 1427 1422 1416 1410 1405 1400 1396 1391 1387 1383 1378 1375 1372